TimeCDT,TemperatureF,Dew PointF,Humidity,Sea Level PressureIn,VisibilityMPH,Wind Direction,Wind SpeedMPH,Gust SpeedMPH,PrecipitationIn,Events,Conditions,WindDirDegrees,DateUTC
12:15 AM,29.7,25.3,84,30.03,10.0,Calm,Calm,-,N/A,,Overcast,0,2011-10-30 05:15:00
12:35 AM,30.4,25.7,83,30.02,10.0,East,3.5,-,N/A,,Overcast,80,2011-10-30 05:35:00
12:55 AM,32.2,25.9,78,30.01,10.0,Calm,Calm,-,N/A,,Mostly Cloudy,0,2011-10-30 05:55:00
1:15 AM,35.2,26.2,70,30.00,10.0,Calm,Calm,-,N/A,,Overcast,0,2011-10-30 06:15:00
1:35 AM,39.4,25.7,58,30.00,10.0,SE,4.6,-,N/A,,Overcast,130,2011-10-30 06:35:00
1:55 AM,41.9,24.1,49,30.01,10.0,South,6.9,-,N/A,,Overcast,170,2011-10-30 06:55:00
2:15 AM,43.7,23.4,45,29.99,10.0,SSE,6.9,-,N/A,,Mostly Cloudy,150,2011-10-30 07:15:00
2:55 AM,44.4,22.8,43,29.99,10.0,SSE,8.1,-,N/A,,Overcast,150,2011-10-30 07:55:00
3:15 AM,44.6,22.6,42,29.98,10.0,SSE,12.7,16.1,N/A,,Overcast,160,2011-10-30 08:15:00
3:35 AM,44.8,22.5,41,29.96,10.0,SSE,11.5,-,N/A,,Overcast,160,2011-10-30 08:35:00
3:55 AM,44.8,23.4,43,29.95,10.0,SSE,13.8,17.3,N/A,,Light Drizzle,160,2011-10-30 08:55:00
4:15 AM,43.9,27.1,52,29.95,10.0,SE,4.6,-,N/A,,Overcast,140,2011-10-30 09:15:00
5:55 AM,45.5,22.8,41,29.91,10.0,SE,8.1,-,N/A,,Overcast,130,2011-10-30 10:55:00
6:15 AM,45.5,22.5,40,29.90,10.0,SE,11.5,-,N/A,,Overcast,130,2011-10-30 11:15:00
6:35 AM,45.5,22.6,41,29.90,10.0,ESE,6.9,-,N/A,,Overcast,120,2011-10-30 11:35:00
6:55 AM,45.0,22.8,42,29.91,10.0,ESE,6.9,-,N/A,,Overcast,110,2011-10-30 11:55:00
7:15 AM,44.2,23.0,43,29.90,10.0,East,6.9,-,N/A,,Overcast,90,2011-10-30 12:15:00
7:35 AM,43.7,23.7,45,29.90,10.0,ESE,5.8,-,N/A,,Overcast,120,2011-10-30 12:35:00
8:15 AM,43.7,24.1,46,29.90,10.0,Calm,Calm,-,N/A,,Overcast,0,2011-10-30 13:15:00
8:35 AM,44.1,24.1,45,29.90,10.0,SE,4.6,-,N/A,,Overcast,130,2011-10-30 13:35:00
8:55 AM,44.6,24.6,45,29.90,10.0,South,3.5,-,N/A,,Drizzle,190,2011-10-30 13:55:00
9:15 AM,44.1,28.2,54,29.89,10.0,SSE,3.5,-,N/A,,Overcast,160,2011-10-30 14:15:00
9:35 AM,44.8,27.7,51,29.88,10.0,SSE,10.4,-,N/A,,Overcast,150,2011-10-30 14:35:00
9:55 AM,45.3,27.5,50,29.87,10.0,SSE,10.4,-,N/A,Rain,Light Rain,150,2011-10-30 14:55:00
10:15 AM,43.2,31.8,64,29.87,10.0,SSE,6.9,16.1,N/A,Rain,Light Rain,160,2011-10-30 15:15:00
10:35 AM,41.7,35.1,77,29.86,10.0,SE,4.6,-,N/A,Rain,Rain,140,2011-10-30 15:35:00
10:55 AM,41.4,35.6,80,29.85,10.0,SE,5.8,-,N/A,,Drizzle,130,2011-10-30 15:55:00
11:15 AM,41.9,35.6,78,29.84,10.0,ESE,8.1,-,N/A,,Light Drizzle,120,2011-10-30 16:15:00
11:35 AM,42.1,36.5,81,29.83,10.0,ESE,8.1,-,N/A,Rain,Light Rain,110,2011-10-30 16:35:00
11:55 AM,41.4,37.0,85,29.85,7.0,SSE,4.6,-,N/A,Rain,Light Rain,150,2011-10-30 16:55:00
12:55 PM,41.2,39.0,92,29.83,7.0,SE,4.6,-,0.01,Rain,Light Rain,140,2011-10-30 17:55:00
1:15 PM,41.4,39.6,93,29.82,7.0,SE,5.8,-,N/A,,Drizzle,140,2011-10-30 18:15:00
1:35 PM,41.7,39.9,93,29.81,7.0,ESE,3.5,-,N/A,,Drizzle,120,2011-10-30 18:35:00
2:15 PM,41.9,40.5,95,-9999,10.0,Calm,Calm,-,N/A,,Drizzle,0,2011-10-30 19:15:00
2:35 PM,41.9,40.8,96,29.80,7.0,Calm,Calm,-,N/A,Rain,Light Rain,0,2011-10-30 19:35:00
3:35 PM,42.8,41.4,95,29.81,10.0,South,3.5,-,N/A,,Overcast,190,2011-10-30 20:35:00
3:55 PM,43.0,41.9,96,29.82,10.0,SSW,3.5,-,N/A,,Overcast,200,2011-10-30 20:55:00
4:15 PM,43.3,42.1,95,29.82,10.0,Calm,Calm,-,N/A,,Overcast,0,2011-10-30 21:15:00
4:35 PM,43.7,42.1,94,29.82,10.0,Calm,Calm,-,N/A,,Overcast,0,2011-10-30 21:35:00
4:55 PM,43.7,42.3,95,29.82,10.0,Calm,Calm,-,N/A,,Overcast,0,2011-10-30 21:55:00
5:15 PM,43.5,42.3,95,29.83,7.0,Calm,Calm,-,N/A,,Overcast,0,2011-10-30 22:15:00
5:35 PM,43.3,42.3,96,29.83,7.0,Calm,Calm,-,N/A,,Overcast,0,2011-10-30 22:35:00
8:55 PM,41.9,41.9,100,29.89,5.0,Calm,Calm,-,N/A,,Light Drizzle,0,2011-10-31 01:55:00
9:55 PM,42.1,41.4,97,29.90,7.0,Calm,Calm,-,N/A,Rain,Light Rain,0,2011-10-31 02:55:00
10:15 PM,41.9,41.4,98,29.90,4.0,Calm,Calm,-,N/A,,Light Drizzle,0,2011-10-31 03:15:00
10:35 PM,41.9,41.4,98,29.91,7.0,WNW,4.6,-,N/A,,Overcast,300,2011-10-31 03:35:00
10:55 PM,41.9,40.5,95,29.91,7.0,NW,4.6,-,N/A,,Overcast,310,2011-10-31 03:55:00
11:15 PM,41.5,40.1,95,29.91,7.0,Calm,Calm,-,N/A,,Overcast,0,2011-10-31 04:15:00
11:35 PM,41.0,40.1,97,29.91,7.0,Calm,Calm,-,N/A,,Overcast,0,2011-10-31 04:35:00
11:55 PM,41.0,40.3,97,29.91,5.0,Calm,Calm,-,N/A,,Overcast,0,2011-10-31 04:55:00